Temp
-12 -12 -12 -12 -12 -11 -11 -11 -11 -11 -11 -11 -11 -11 -10 -10 -10 -10 -10 -10 -10 -10 -10 -10 -10 -11 -11 -11 -11 -11 -12 -12 -13 -13 -13 -13 -13 -13 -13 -12 -12 -12 -12 -12 -12
-12 -12 -12 -12 -12 -11 -11 -11 -11 -11 -11 -11 -11 -11 -11 -10 -10 -10 -10 -10 -11 -11 -10 -11 -10 -11 -11 -11 -12 -12 -12 -12 -13 -13 -13 -13 -13 -13 -13 -12 -12 -12 -12 -12 -12
-12 -12 -13 -12 -12 -12 -12 -12 -12 -11 -11 -11 -11 -11 -11 -11 -10 -10 -11 -11 -11 -11 -11 -11 -11 -11 -11 -11 -12 -12 -12 -12 -13 -13 -13 -13 -13 -13 -13 -13 -13 -12 -12 -12 -12
-13 -13 -13 -12 -12 -12 -12 -12 -12 -12 -12 -11 -11 -11 -11 -11 -11 -11 -11 -11 -11 -11 -11 -11 -11 -11 -11 -11 -12 -12 -12 -13 -13 -13 -13 -13 -13 -13 -13 -13 -13 -12 -12 -12 -12
-13 -13 -13 -13 -12 -12 -12 -12 -12 -12 -12 -11 -11 -11 -11 -11 -11 -11 -11 -11 -11 -11 -11 -11 -11 -11 -11 -11 -12 -13 -13 -13 -13 -13 -13 -13 -13 -13 -13 -13 -13 -13 -12 -12 -12
-13 -13 -13 -13 -13 -13 -13 -12 -12 -12 -12 -12 -12 -11 -11 -11 -11 -11 -11 -12 -11 -11 -11 -11 -11 -11 -11 -12 -12 -13 -13 -14 -14 -14 -14 -14 -14 -14 -14 -14 -14 -14 -13 -13 -13
-13 -13 -13 -13 -13 -13 -13 -12 -12 -12 -12 -12 -12 -12 -12 -12 -11 -12 -12 -12 -12 -12 -11 -11 -11 -12 -12 -12 -13 -13 -14 -14 -14 -14 -14 -14 -14 -14 -14 -14 -14 -14 -13 -13 -13
-14 -14 -13 -13 -13 -13 -13 -13 -13 -13 -12 -12 -12 -12 -12 -12 -12 -12 -12 -12 -12 -12 -12 -12 -12 -12 -12 -13 -13 -13 -14 -14 -14 -14 -14 -14 -14 -14 -14 -14 -14 -14 -13 -13 -13
-14 -14 -14 -14 -14 -13 -13 -13 -13 -13 -12 -12 -12 -12 -12 -12 -12 -12 -12 -12 -12 -12 -12 -12 -12 -12 -12 -13 -13 -13 -14 -14 -14 -14 -14 -14 -14 -14 -14 -14 -14 -14 -14 -14 -13
-14 -14 -14 -14 -14 -14 -13 -13 -13 -13 -13 -12 -12 -12 -12 -12 -12 -12 -12 -12 -12 -12 -12 -12 -12 -12 -13 -12 -13 -14 -14 -13 -13 -14 -13 -13 -14 -13 -14 -14 -14 -13 -14 -14 -14
-15 -15 -15 -14 -14 -14 -14 -14 -13 -13 -13 -13 -12 -12 -13 -12 -12 -12 -12 -12 -13 -13 -12 -12 -12 -13 -12 -13 -13 -13 -13 -13 -13 -13 -13 -13 -14 -14 -13 -14 -14 -14 -14 -14 -14
-15 -15 -15 -14 -14 -14 -14 -14 -14 -13 -13 -13 -13 -13 -13 -13 -12 -12 -12 -13 -13 -13 -13 -13 -13 -13 -13 -13 -14 -14 -13 -14 -13 -13 -13 -13 -13 -14 -14 -14 -14 -14 -14 -14 -14
-16 -15 -15 -15 -15 -14 -14 -14 -14 -13 -13 -13 -13 -13 -13 -13 -13 -13 -13 -13 -13 -13 -13 -13 -13 -13 -13 -14 -13 -14 -13 -14 -14 -14 -14 -14 -13 -14 -14 -14 -14 -14 -14 -14 -14
-16 -16 -16 -15 -15 -15 -14 -14 -14 -14 -14 -14 -14 -13 -13 -13 -13 -13 -13 -13 -13 -13 -13 -13 -13 -13 -14 -14 -14 -14 -14 -14 -14 -14 -14 -14 -13 -14 -14 -14 -14 -14 -14 -14 -15
-16 -16 -16 -15 -15 -15 -15 -15 -15 -15 -14 -14 -14 -14 -14 -14 -13 -13 -13 -13 -13 -13 -13 -13 -14 -14 -14 -14 -14 -14 -14 -14 -14 -14 -14 -14 -14 -14 -14 -14 -14 -15 -15 -15 -15
-16 -16 -16 -16 -15 -15 -15 -15 -15 -15 -15 -14 -14 -14 -14 -14 -14 -14 -14 -14 -14 -14 -14 -14 -14 -14 -14 -14 -14 -15 -15 -15 -14 -14 -14 -15 -15 -14 -14 -14 -14 -15 -15 -15 -15
-17 -16 -16 -16 -16 -15 -15 -15 -15 -15 -15 -15 -15 -15 -15 -14 -14 -14 -14 -14 -14 -14 -14 -14 -14 -15 -15 -15 -15 -15 -15 -15 -15 -15 -15 -15 -15 -15 -15 -15 -15 -15 -15 -15 -15
-17 -17 -16 -16 -16 -16 -16 -16 -15 -15 -15 -15 -15 -15 -15 -15 -15 -15 -15 -15 -15 -15 -15 -15 -15 -15 -15 -15 -15 -15 -15 -15 -15 -15 -15 -15 -15 -15 -15 -15 -15 -15 -15 -15 -15
-17 -17 -16 -16 -16 -16 -16 -16 -16 -16 -16 -16 -16 -15 -16 -16 -15 -15 -15 -15 -15 -15 -15 -15 -15 -15 -15 -15 -16 -16 -16 -16 -16 -15 -15 -15 -15 -15 -16 -16 -16 -16 -16 -16 -16
-17 -17 -17 -16 -16 -16 -16 -16 -16 -16 -16 -16 -16 -16 -16 -16 -16 -16 -16 -15 -16 -16 -16 -16 -15 -16 -16 -16 -16 -16 -16 -16 -16 -16 -16 -16 -16 -16 -16 -16 -16 -17 -17 -17 -17
-17 -17 -17 -17 -16 -16 -16 -16 -16 -16 -16 -16 -16 -16 -16 -16 -16 -16 -16 -16 -16 -16 -16 -16 -16 -16 -16 -16 -16 -17 -17 -17 -18 -17 -17 -16 -16 -17 -17 -17 -17 -18 -18 -18 -18
-17 -17 -17 -17 -17 -17 -17 -17 -17 -16 -16 -16 -16 -17 -16 -16 -16 -16 -16 -16 -16 -16 -16 -16 -16 -16 -16 -17 -17 -17 -17 -18 -18 -17 -17 -17 -16 -17 -17 -18 -18 -18 -18 -18 -18
-18 -17 -18 -18 -17 -17 -16 -16 -16 -17 -17 -17 -17 -16 -16 -16 -16 -16 -16 -17 -17 -17 -17 -17 -16 -17 -16 -17 -17 -17 -17 -17 -18 -17 -17 -18 -17 -18 -18 -18 -18 -18 -18 -18 -18
-18 -18 -18 -18 -17 -17 -16 -17 -17 -17 -17 -16 -16 -16 -16 -16 -16 -16 -17 -16 -17 -17 -17 -17 -17 -17 -17 -17 -17 -17 -17 -18 -18 -18 -18 -17 -18 -19 -19 -19 -19 -19 -19 -19 -19
-18 -18 -17 -17 -17 -17 -17 -17 -17 -17 -16 -16 -16 -16 -17 -17 -17 -17 -17 -17 -17 -17 -17 -17 -17 -18 -18 -18 -18 -18 -18 -19 -19 -19 -19 -19 -19 -20 -20 -20 -20 -20 -20 -20 -20
-17 -17 -17 -17 -17 -17 -17 -17 -17 -17 -17 -17 -17 -17 -17 -17 -17 -17 -17 -17 -18 -18 -18 -18 -18 -18 -18 -19 -19 -18 -18 -19 -19 -20 -20 -20 -19 -21 -20 -21 -21 -21 -21 -21 -21
-17 -17 -17 -17 -17 -17 -17 -17 -17 -17 -17 -17 -17 -17 -18 -18 -18 -18 -18 -18 -18 -18 -19 -19 -19 -19 -19 -19 -20 -18 -19 -20 -20 -20 -21 -20 -21 -21 -21 -21 -21 -22 -22 -22 -22
Height
5791 5792 5794 5796 5797 5799 5799 5801 5801 5802 5803 5802 5803 5803 5803 5804 5802 5803 5801 5802 5800 5800 5799 5799 5800 5799 5798 5798 5798 5797 5797 5796 5795 5796 5797 5796 5797 5797 5799 5801 5802 5805 5805 5805 5805
5788 5790 5791 5793 5795 5796 5797 5798 5798 5800 5800 5800 5800 5801 5800 5801 5799 5799 5799 5798 5797 5796 5796 5796 5796 5795 5795 5795 5794 5794 5793 5793 5791 5791 5792 5791 5793 5792 5795 5796 5798 5799 5799 5800 5800
5786 5788 5789 5790 5791 5793 5794 5795 5796 5797 5797 5797 5797 5797 5798 5797 5797 5796 5794 5794 5794 5793 5793 5794 5793 5793 5792 5791 5790 5790 5789 5788 5786 5786 5788 5787 5788 5788 5790 5793 5793 5793 5795 5796 5796
5783 5784 5786 5788 5788 5790 5791 5793 5793 5794 5794 5794 5793 5793 5794 5794 5794 5792 5790 5791 5791 5790 5790 5790 5790 5790 5789 5788 5787 5786 5785 5784 5783 5783 5783 5783 5784 5785 5786 5789 5789 5788 5789 5790 5791
5780 5781 5783 5784 5785 5786 5788 5789 5788 5789 5789 5790 5790 5791 5789 5790 5788 5788 5787 5787 5787 5786 5787 5787 5787 5786 5786 5785 5784 5783 5782 5781 5780 5780 5780 5780 5780 5781 5782 5783 5785 5785 5785 5785 5786
5775 5777 5778 5779 5781 5781 5782 5783 5785 5786 5786 5786 5786 5785 5784 5784 5783 5784 5783 5783 5783 5782 5784 5783 5783 5783 5783 5783 5782 5781 5780 5779 5778 5778 5778 5778 5778 5778 5780 5779 5781 5781 5781 5782 5782
5770 5772 5773 5775 5776 5777 5779 5780 5781 5781 5781 5781 5780 5780 5779 5780 5778 5778 5778 5779 5778 5779 5779 5780 5780 5780 5780 5780 5779 5778 5778 5777 5777 5777 5776 5777 5777 5777 5776 5777 5777 5778 5778 5778 5778
5766 5767 5769 5770 5771 5773 5774 5775 5776 5776 5776 5776 5775 5775 5774 5774 5773 5773 5774 5774 5774 5774 5775 5776 5776 5776 5776 5776 5776 5775 5775 5775 5774 5775 5774 5775 5775 5773 5774 5774 5774 5774 5774 5774 5774
5760 5762 5764 5765 5766 5768 5769 5770 5770 5771 5770 5770 5770 5769 5769 5769 5768 5769 5769 5769 5770 5770 5771 5772 5772 5772 5773 5773 5773 5772 5772 5772 5772 5772 5771 5772 5772 5771 5770 5771 5771 5771 5770 5770 5770
5753 5756 5758 5759 5761 5762 5763 5764 5765 5765 5765 5764 5764 5765 5764 5764 5763 5764 5764 5764 5765 5766 5767 5767 5768 5769 5768 5769 5769 5768 5768 5768 5769 5769 5768 5768 5768 5769 5769 5768 5767 5767 5766 5765 5765
5747 5750 5752 5754 5755 5756 5758 5759 5760 5760 5758 5758 5759 5759 5758 5759 5759 5759 5759 5760 5760 5761 5762 5762 5765 5763 5763 5765 5764 5763 5764 5764 5765 5765 5764 5765 5765 5764 5764 5764 5763 5761 5762 5761 5760
5741 5743 5746 5748 5750 5751 5752 5753 5753 5754 5753 5752 5753 5753 5753 5754 5755 5754 5754 5756 5756 5756 5758 5758 5759 5758 5759 5760 5759 5759 5759 5759 5759 5759 5758 5759 5762 5760 5758 5759 5758 5756 5756 5756 5755
5735 5738 5740 5742 5744 5745 5746 5747 5747 5746 5747 5747 5747 5748 5749 5749 5749 5749 5750 5750 5751 5751 5752 5753 5754 5753 5753 5753 5753 5753 5754 5753 5753 5752 5751 5752 5755 5755 5753 5751 5751 5750 5749 5749 5748
5729 5732 5734 5736 5739 5739 5740 5740 5740 5741 5742 5744 5742 5743 5743 5743 5745 5743 5744 5746 5746 5746 5746 5747 5748 5747 5747 5747 5747 5747 5747 5746 5745 5744 5744 5746 5743 5749 5747 5744 5743 5741 5740 5741 5741
5722 5725 5728 5730 5732 5733 5734 5734 5735 5736 5737 5738 5737 5737 5737 5739 5740 5739 5739 5739 5740 5740 5741 5742 5741 5741 5741 5740 5740 5741 5740 5739 5738 5736 5735 5739 5733 5740 5739 5738 5737 5734 5733 5733 5733
5716 5719 5721 5723 5725 5727 5727 5728 5729 5732 5731 5732 5732 5732 5733 5733 5733 5734 5734 5734 5734 5735 5734 5734 5735 5735 5734 5734 5733 5733 5733 5731 5730 5729 5727 5730 5729 5729 5729 5729 5729 5728 5727 5724 5724
5709 5712 5715 5717 5719 5720 5721 5723 5725 5725 5727 5727 5727 5727 5727 5728 5727 5727 5727 5727 5728 5728 5728 5727 5727 5727 5727 5726 5726 5726 5726 5723 5722 5721 5721 5719 5718 5720 5719 5719 5719 5719 5719 5718 5716
5703 5706 5709 5711 5713 5715 5716 5718 5719 5720 5720 5720 5721 5721 5722 5722 5722 5721 5721 5721 5721 5721 5720 5720 5722 5720 5720 5720 5719 5719 5718 5717 5712 5711 5711 5710 5708 5709 5708 5707 5707 5708 5708 5707 5707
5698 5701 5703 5705 5707 5709 5711 5712 5713 5714 5714 5714 5714 5714 5715 5715 5714 5714 5714 5714 5714 5713 5713 5711 5712 5713 5713 5712 5712 5711 5709 5708 5705 5703 5700 5700 5700 5698 5698 5696 5696 5695 5695 5696 5696
5693 5696 5698 5700 5701 5703 5705 5706 5707 5707 5708 5708 5708 5707 5708 5707 5706 5706 5705 5706 5706 5706 5704 5704 5702 5704 5704 5703 5703 5701 5699 5698 5696 5693 5691 5691 5689 5687 5686 5685 5684 5682 5681 5681 5682
5688 5690 5692 5694 5695 5698 5699 5699 5700 5700 5700 5700 5700 5699 5699 5699 5699 5698 5697 5698 5697 5697 5696 5695 5695 5695 5694 5694 5692 5691 5689 5687 5685 5683 5681 5679 5679 5676 5676 5675 5674 5672 5669 5667 5666
5683 5685 5686 5688 5690 5691 5692 5692 5693 5693 5692 5692 5692 5692 5692 5691 5690 5690 5689 5688 5688 5688 5687 5686 5684 5683 5683 5682 5680 5679 5677 5676 5673 5673 5670 5669 5669 5665 5664 5663 5660 5658 5657 5655 5654
5677 5679 5680 5681 5683 5684 5684 5685 5684 5684 5684 5684 5683 5684 5683 5683 5682 5681 5681 5680 5678 5677 5676 5676 5674 5673 5671 5672 5670 5668 5667 5665 5662 5660 5659 5657 5658 5652 5651 5649 5647 5645 5643 5641 5640
5671 5673 5674 5675 5676 5677 5677 5676 5676 5677 5677 5676 5676 5675 5675 5674 5673 5672 5672 5670 5669 5668 5666 5665 5665 5663 5663 5660 5659 5658 5655 5653 5649 5648 5647 5645 5646 5641 5639 5636 5633 5631 5629 5626 5624
5665 5667 5668 5668 5669 5669 5670 5670 5670 5670 5669 5669 5668 5667 5666 5666 5665 5664 5662 5662 5661 5659 5658 5656 5655 5653 5652 5650 5648 5647 5644 5641 5639 5637 5631 5635 5630 5628 5623 5620 5618 5615 5612 5609 5607
5659 5660 5660 5661 5662 5662 5663 5663 5663 5662 5661 5660 5660 5659 5658 5658 5657 5656 5655 5653 5652 5650 5648 5645 5643 5642 5641 5638 5636 5635 5632 5629 5626 5624 5619 5616 5617 5612 5608 5605 5601 5597 5594 5592 5589
5653 5654 5655 5656 5656 5656 5656 5655 5655 5654 5654 5653 5653 5652 5651 5650 5649 5647 5645 5644 5643 5640 5638 5635 5632 5628 5626 5624 5622 5623 5621 5615 5612 5609 5604 5601 5600 5596 5593 5588 5583 5579 5576 5572 5570
Wind_Speed
18 16 17 19 18 17 14 14 13 12 11 11 11 11 12 13 13 15 13 13 13 12 11 11 13 14 14 14 15 14 13 15 18 21 20 20 24 26 26 24 24 22 23 22 22
17 18 14 16 18 20 17 16 13 13 12 12 13 14 14 14 15 16 14 14 13 11 12 12 13 13 14 15 16 16 16 15 17 17 16 21 20 24 23 22 21 21 22 22 22
19 18 19 17 17 18 18 16 14 15 15 15 15 16 17 16 18 16 14 14 13 11 12 12 12 12 13 14 15 17 16 15 16 16 15 20 19 22 21 19 20 22 22 22 22
18 18 19 19 18 18 17 17 16 16 16 17 17 19 20 18 20 17 15 15 13 11 11 11 10 12 13 13 13 13 12 12 12 13 14 16 18 19 19 18 19 21 22 22 23
20 19 19 17 18 19 19 18 18 20 19 20 21 22 20 20 22 19 16 16 14 12 12 12 11 11 13 12 10 8 8 7 7 8 10 11 13 16 16 17 16 17 19 19 20
22 21 21 22 24 22 19 19 20 22 21 22 22 22 21 20 21 19 17 17 15 14 14 13 11 12 12 11 8 6 5 4 5 5 5 5 5 7 8 10 9 10 12 14 15
23 23 21 22 22 23 24 22 23 22 23 23 23 23 21 20 19 19 18 17 16 16 15 13 12 12 12 11 8 6 6 6 7 6 7 6 7 7 10 10 12 11 12 13 14
28 24 24 23 22 23 22 22 23 23 24 24 23 22 20 20 18 19 19 18 17 16 16 15 13 12 13 10 10 9 8 8 9 8 9 9 10 11 11 12 13 14 14 14 15
27 25 25 24 24 23 23 24 23 24 24 24 23 21 20 20 19 19 20 19 18 17 17 16 15 14 14 12 11 11 10 9 10 9 9 9 9 11 13 12 13 13 14 15 15
26 27 27 25 25 24 24 24 24 24 24 23 22 20 19 19 18 18 18 18 17 17 18 18 16 15 15 15 13 11 12 10 9 8 9 7 9 8 9 10 13 12 13 16 16
27 27 26 27 26 25 25 24 24 25 23 22 20 19 18 18 17 18 18 18 18 19 20 19 18 18 20 17 17 16 15 15 13 12 12 11 9 14 13 12 15 18 15 17 17
28 28 26 27 27 26 25 25 25 24 22 22 20 18 19 18 17 17 18 19 20 22 20 21 19 21 22 20 20 20 20 20 20 20 21 19 13 17 19 19 19 20 20 20 20
28 27 26 27 27 27 26 26 25 23 22 21 21 18 18 18 17 19 18 20 21 23 23 22 21 24 24 24 24 24 23 24 26 26 27 25 21 21 21 24 24 24 24 24 23
29 27 26 27 28 27 26 25 24 22 21 19 20 19 18 19 19 21 21 22 22 23 24 24 22 25 26 26 26 28 27 28 30 31 31 29 32 23 25 27 26 27 28 27 26
29 27 27 27 28 26 25 23 21 21 20 17 16 16 16 18 18 19 20 20 20 23 25 23 24 27 27 27 28 29 30 31 33 34 35 31 37 27 26 26 26 28 28 28 29
27 26 25 26 25 24 22 21 20 20 19 17 16 16 17 19 20 22 23 24 24 24 25 25 26 26 26 27 29 30 31 33 35 36 38 33 34 32 30 29 28 28 28 29 30
26 24 24 25 23 22 21 21 20 19 18 20 19 19 20 20 21 22 23 24 24 25 25 27 26 26 26 28 29 30 31 34 37 36 37 36 37 34 34 33 31 29 29 30 32
24 23 24 22 21 21 21 21 20 20 21 22 22 22 22 23 23 25 26 26 27 28 29 29 27 27 27 29 30 30 31 33 38 39 39 39 41 39 39 38 36 34 33 34 36
23 23 22 21 20 21 21 21 21 22 23 24 24 26 24 25 27 27 28 28 28 29 30 31 31 30 30 31 32 32 34 36 38 41 43 43 43 42 41 41 41 39 38 38 38
22 22 21 21 21 21 22 22 23 24 25 25 25 27 25 25 27 27 27 26 27 28 30 31 33 32 31 32 33 35 37 37 37 41 44 45 46 47 45 45 44 46 46 45 43
21 21 20 21 21 22 22 23 24 25 26 26 26 27 26 25 26 27 28 27 28 29 30 31 33 34 34 34 36 37 39 40 42 43 44 44 44 46 45 46 47 47 48 48 48
21 19 20 21 22 22 22 23 24 25 27 28 31 30 29 30 31 31 30 30 30 30 32 34 37 38 38 38 37 37 37 38 39 41 42 43 44 45 44 44 46 46 46 46 46
24 24 21 22 21 22 24 28 28 25 25 27 28 28 28 28 30 29 29 30 33 35 35 34 36 37 38 37 36 37 36 36 38 40 41 41 42 43 43 45 46 47 48 49 48
25 24 25 26 28 29 31 24 20 21 23 25 25 26 27 28 29 30 29 31 31 32 32 33 32 33 34 36 37 37 38 38 40 42 40 45 40 42 45 47 48 49 50 51 52
33 32 31 33 29 24 18 18 21 24 26 27 27 28 28 28 29 29 30 29 29 30 30 32 33 34 34 35 38 39 41 40 40 41 47 43 46 45 49 51 52 54 55 56 56
23 23 21 18 16 18 21 23 24 24 24 24 25 25 26 26 26 27 28 30 30 31 31 33 36 37 38 39 41 44 46 46 47 48 50 52 53 52 56 55 56 57 59 60 60
12 14 16 17 19 21 23 23 23 23 23 24 25 26 26 27 28 29 29 31 33 34 36 38 40 43 46 45 46 48 46 48 49 49 51 53 52 54 55 57 59 60 61 62 63
Wind_Direction
221 223 214 211 230 222 225 229 229 240 244 251 265 280 286 285 289 287 285 274 262 265 274 282 285 289 287 280 279 283 282 271 271 269 276 268 257 258 259 261 260 262 261 261 264
225 222 232 225 221 224 229 235 242 249 259 265 272 275 281 287 284 286 281 275 264 266 278 283 287 292 288 282 279 278 278 280 274 272 266 267 264 262 259 260 264 265 261 260 263
230 222 231 236 227 225 230 237 246 256 264 269 276 282 281 282 281 282 281 274 263 263 277 282 291 293 291 286 282 279 273 276 274 279 271 265 265 263 263 259 262 263 266 264 266
231 226 222 233 231 235 235 241 249 260 268 275 281 282 280 282 279 277 277 271 262 265 275 277 284 292 292 290 285 279 278 276 282 282 275 264 263 262 261 255 257 266 270 268 268
234 230 233 230 230 235 241 248 257 268 272 276 277 275 281 280 276 272 271 267 261 263 267 270 282 291 288 288 286 286 283 285 289 287 281 270 266 265 262 258 257 262 267 270 270
236 233 232 227 238 249 247 253 258 264 271 275 278 281 282 277 273 268 267 267 260 259 260 264 276 286 283 280 281 278 287 300 296 290 286 287 283 282 273 276 269 269 274 275 273
241 237 233 232 232 236 243 251 259 268 275 278 282 282 279 273 269 265 262 265 259 258 256 260 272 278 278 275 274 270 276 280 273 270 268 270 268 270 272 270 276 271 272 272 271
235 240 236 235 237 240 247 255 264 271 278 282 283 281 276 271 268 262 259 264 255 255 257 257 263 270 268 269 266 265 270 274 277 270 269 266 267 266 264 268 271 276 272 269 268
233 239 238 236 238 243 250 257 266 273 281 286 284 278 273 271 268 262 258 260 252 255 255 253 255 264 262 261 261 266 272 269 266 275 272 274 266 270 279 278 277 278 283 278 275
235 231 242 239 241 246 252 260 268 276 281 281 279 275 271 272 268 262 258 254 251 254 254 252 252 258 257 258 256 262 262 268 257 254 270 275 284 283 283 292 295 290 288 291 287
233 235 234 240 243 248 255 264 272 277 279 276 274 271 264 267 267 264 257 252 251 252 253 256 252 251 256 256 256 260 263 264 260 262 264 270 280 287 292 291 290 292 290 288 291
233 234 237 241 247 252 260 267 274 275 274 270 268 264 260 264 268 266 260 254 251 254 257 256 252 254 257 256 257 261 266 269 272 273 271 272 272 276 287 289 286 287 284 281 282
236 236 239 245 249 256 263 269 270 271 269 270 268 262 260 260 263 265 262 258 255 255 257 257 255 256 257 257 259 261 265 268 271 270 273 275 273 272 282 286 284 280 278 275 275
236 238 242 248 253 259 263 266 268 268 267 266 264 263 261 261 262 262 262 261 257 258 259 258 259 258 258 259 263 265 266 267 270 273 274 274 279 274 275 276 273 274 276 276 277
234 239 244 249 255 259 261 262 262 264 268 262 260 258 257 258 260 260 262 262 261 261 262 265 260 258 260 262 262 264 265 268 270 272 275 278 281 282 276 274 276 276 274 272 272
235 241 246 252 255 259 260 261 261 262 263 258 258 256 257 260 262 264 265 266 265 265 266 266 265 263 264 264 265 267 268 269 271 274 276 280 278 286 283 281 278 276 275 275 272
239 242 247 251 254 256 256 257 259 260 263 261 263 263 263 263 265 265 266 267 267 266 267 266 266 265 266 265 266 268 270 273 275 276 279 282 282 283 285 281 278 276 272 270 273
237 241 244 245 248 250 252 255 257 260 259 263 266 267 268 267 265 266 265 267 269 271 271 270 268 270 270 270 271 272 273 275 278 282 284 283 285 287 286 288 287 285 281 278 275
237 239 241 242 245 249 252 255 256 258 263 266 269 271 273 273 272 270 270 270 272 272 273 274 273 271 272 273 274 273 273 274 276 278 281 283 284 285 287 286 286 285 283 281 279
233 237 241 244 247 250 254 256 258 260 264 267 270 273 275 275 276 276 275 277 274 273 274 275 277 276 275 274 275 276 277 277 278 279 280 281 284 285 287 288 289 290 289 287 284
234 238 243 248 251 253 257 261 263 265 269 273 275 278 280 279 278 278 279 277 276 276 274 274 275 278 278 280 280 279 277 277 279 280 282 284 284 284 286 286 285 285 285 285 286
232 237 244 251 254 258 261 264 265 270 273 277 279 278 275 277 279 275 276 277 277 276 277 277 278 278 279 279 280 279 280 279 279 281 279 281 283 286 288 287 286 286 287 286 284
237 239 247 250 255 258 265 267 270 273 271 273 273 271 274 277 279 278 276 276 277 279 280 280 279 281 280 280 279 280 280 281 282 282 283 285 286 287 286 285 283 284 284 285 286
238 239 246 252 259 259 276 264 264 271 274 274 275 277 276 277 279 280 278 277 278 279 279 280 282 281 283 283 282 285 285 285 284 285 287 283 289 286 285 285 284 284 284 284 283
252 249 250 260 263 261 259 266 273 275 274 276 278 277 277 277 278 278 279 280 280 280 281 281 281 281 282 283 282 282 283 285 288 289 286 289 287 288 287 286 286 285 284 283 282
255 255 251 253 261 266 269 272 276 277 274 274 274 273 274 275 277 278 278 280 282 284 286 285 285 285 285 287 287 284 286 291 289 288 288 286 285 285 283 284 283 282 282 282 282
252 256 260 266 268 270 271 272 272 273 273 274 274 275 277 279 280 281 283 284 286 287 288 289 291 290 289 289 287 286 288 287 288 287 286 288 285 283 282 282 282 281 281 280 280